Overview Statistics Trail Chart Weather Telemetry Raw packets
 

This is the latest recevied weather packets stored in our database for station/object SV9TNF-51. If no packets are shown the sender has not sent any weather packets the latest 10 day(s).

<< 111 112 113 114 115 >>
Time Temp. Humidity Pressure Rain* Wind** Luminosity Snow
1787820388 33.33° C 50% 1012.2 hPa 0 mm 5.36 m/s, 314° - -
1787820088 33.89° C 47% 1012.2 hPa 0 mm 6.71 m/s, 125° - -
1787819789 33.89° C 48% 1012.2 hPa 0 mm 1.34 m/s, 126° - -
1787819488 32.78° C 49% 1012.2 hPa 0 mm 4.92 m/s, 340° - -
1787819189 33.33° C 47% 1012.2 hPa 0 mm 7.15 m/s, 289° - -
1787818888 32.78° C 49% 1012.2 hPa 0 mm 8.94 m/s, 357° - -
1787818588 32.22° C 50% 1012.2 hPa 0 mm 9.83 m/s, 224° - -
1787818293 32.22° C 50% 1012.2 hPa 0 mm 7.6 m/s, 134° - -
1787817987 32.22° C 51% 1012.2 hPa 0 mm 6.26 m/s, 166° - -
1787817687 32.22° C 50% 1012.2 hPa 0 mm 5.81 m/s, 344° - -
1787817387 31.67° C 52% 1012.2 hPa 0 mm 7.15 m/s, 347° - -
1787817087 32.22° C 52% 1012.2 hPa 0 mm 4.92 m/s, 128° - -
1787816787 31.67° C 53% 1012.2 hPa 0 mm 4.92 m/s, 118° - -
1787816487 31.67° C 51% 1012.2 hPa 0 mm 8.94 m/s, 183° - -
1787816187 31.67° C 52% 1012.2 hPa 0 mm 7.15 m/s, 310° - -
1787815887 31.67° C 52% 1012.2 hPa 0 mm 7.15 m/s, 115° - -
1787815587 31.67° C 51% 1012.2 hPa 0 mm 4.47 m/s, 312° - -
1787815289 31.67° C 48% 1011.9 hPa 0 mm 8.49 m/s, 325° - -
1787814993 31.67° C 49% 1011.9 hPa 0 mm 4.92 m/s, 341° - -
1787814686 31.67° C 52% 1011.9 hPa 0 mm 8.05 m/s, 107° - -
1787814386 31.67° C 46% 1011.9 hPa 0 mm 3.58 m/s, 357° - -
1787814086 31.67° C 49% 1011.9 hPa 0 mm 5.81 m/s, 323° - -
1787813786 31.11° C 50% 1011.5 hPa 0 mm 3.58 m/s, 306° - -
1787813486 30.56° C 56% 1011.5 hPa 0 mm 5.81 m/s, 197° - -
1787813186 30.56° C 56% 1011.5 hPa 0 mm 6.71 m/s, 180° - -

* Rain latest hour (hover to see other rain measurements)
** Current wind speed in m/s (hover to see current wind gust speed)